Luxembourg, Luxembourg

9:43 AM CEST on June 19, 2018 (GMT +0200)
Luxembourg

Weather History for ELLX - May, 2017

Change the Weather History Date:

Saturday, May 27, 2017

  Actual Average Record
Temperature  
Mean Temperature 72 °F -  
Max Temperature 84 °F 67 °F 84 °F (2005)
Min Temperature 60 °F 50 °F 41 °F (2015)
Cooling Degree Days 7    
Growing Degree Days 22 (Base 50)    
Moisture  
Dew Point 53 °F    
Average Humidity 48    
Maximum Humidity 72    
Minimum Humidity 25    
Precipitation  
Precipitation 0.00 in 0.11 in - ()
Sea Level Pressure  
Sea Level Pressure 30.07 in    
Wind  
Wind Speed 7 mph ()    
Max Wind Speed 13 mph    
Max Gust Speed -    
Visibility 10.8 miles    
Events      
Averages and records for this station are not official NWS values.
T = Trace of Precipitation, MM = Missing Value Source: Averaged Metar Reports

Daily Weather History Graph

Daily Weather History Graph

Search for Another Location

Airport or City:

Astronomy

May. 27, 2017 Rise Set
Actual Time 5:36 AM CEST 9:28 PM CEST
Civil Twilight 4:55 AM CEST 10:09 PM CEST
Nautical Twilight 3:58 AM CEST 11:07 PM CEST
Astronomical Twilight 2:28 AM CEST 12:40 AM CEST
Moon 7:25 AM CEST (5/27) 11:14 PM CEST (5/27)
Length of Visible Light 17h 14m
Length of Day
15h 51m
Waxing Crescent, 4% of the Moon is Illuminated
May 27
Waxing Crescent
Jun 1
First Quarter
Jun 9
Full
Jun 17
Last Quarter
Jun 24
New

Hourly Weather History & Observations

Time (CEST) Temp. Heat Index Dew Point Humidity Pressure Visibility Wind Dir Wind Speed Gust Speed Precip Events Conditions
12:00 AM 66 °F - 51 °F 49% 30.06 in 19 mi ENE 8.9 mph - -  
12:20 AM 64.4 °F - 51.8 °F 64% 30.09 in - ENE 8.1 mph - N/A   Clear
12:50 AM 62.6 °F - 51.8 °F 68% 30.09 in 6.2 mi ENE 6.9 mph - N/A   Unknown
1:00 AM 62 °F - 51 °F 58% 30.08 in 22 mi ENE 6.7 mph - -  
1:20 AM 62.6 °F - 51.8 °F 68% 30.09 in - ENE 6.9 mph - N/A   Clear
1:50 AM 60.8 °F - 51.8 °F 72% 30.06 in - ENE 6.9 mph - N/A   Clear
2:00 AM 62 °F - 51 °F 59% 30.06 in 19 mi ENE 6.7 mph - -  
2:20 AM 60.8 °F - 51.8 °F 72% 30.06 in 6.2 mi ENE 8.1 mph - N/A   Unknown
2:50 AM 60.8 °F - 51.8 °F 72% 30.06 in 6.2 mi East 8.1 mph - N/A   Unknown
3:00 AM 61 °F - 52 °F 63% 30.06 in 31 mi East 8.9 mph - -  
3:20 AM 60.8 °F - 51.8 °F 72% 30.06 in 6.2 mi ENE 4.6 mph - N/A   Unknown
3:50 AM 62.6 °F - 51.8 °F 68% 30.06 in 6.2 mi East 5.8 mph - N/A   Unknown
4:00 AM 62 °F - 51 °F 58% 30.07 in 22 mi East 6.7 mph - -  
4:20 AM 62.6 °F - 51.8 °F 68% 30.09 in 6.2 mi ESE 3.5 mph - N/A   Unknown
4:50 AM 62.6 °F - 50.0 °F 63% 30.09 in - ESE 6.9 mph - N/A   Clear
5:20 AM 62.6 °F - 51.8 °F 68% 30.09 in - ESE 8.1 mph - N/A   Clear
5:50 AM 60.8 °F - 50.0 °F 68% 30.09 in - ESE 5.8 mph - N/A   Clear
6:20 AM 62.6 °F - 51.8 °F 68% 30.09 in - East 8.1 mph - N/A   Clear
6:50 AM 62.6 °F - 51.8 °F 68% 30.09 in - East 6.9 mph - N/A   Clear
7:00 AM 64 °F - 51 °F 54% 30.09 in 19 mi East 6.7 mph - -  
7:20 AM 64.4 °F - 51.8 °F 64% 30.09 in - ENE 4.6 mph - N/A   Clear
7:50 AM 66.2 °F - 51.8 °F 60% 30.09 in - ENE 9.2 mph - N/A   Clear
8:00 AM 66 °F - 52 °F 52% 30.08 in 19 mi ENE 4.5 mph - -  
8:20 AM 68.0 °F - 51.8 °F 56% 30.09 in - ENE 5.8 mph - N/A   Clear
8:50 AM 68.0 °F - 51.8 °F 56% 30.09 in - East 5.8 mph - N/A   Clear
9:00 AM 68 °F - 52 °F 46% 30.08 in 19 mi East 6.7 mph - -  
9:20 AM 69.8 °F - 51.8 °F 53% 30.09 in - ESE 6.9 mph - N/A   Clear
9:50 AM 71.6 °F - 50.0 °F 46% 30.09 in - SE 9.2 mph - N/A   Clear
10:00 AM 71 °F - 50 °F 36% 30.07 in 22 mi SE 8.9 mph - -   Clear
10:20 AM 73.4 °F - 50.0 °F 44% 30.09 in 6.2 mi ESE 12.7 mph - N/A   Unknown
10:50 AM 75.2 °F - 50.0 °F 41% 30.09 in - SE 11.5 mph - N/A   Clear
11:00 AM 74 °F - 51 °F 33% 30.05 in 22 mi SE 11.2 mph - -   Clear
11:20 AM 77.0 °F - 51.8 °F 41% 30.09 in - SE 9.2 mph - N/A   Clear
11:50 AM 77.0 °F - 51.8 °F 41% 30.09 in - SSE 10.4 mph - N/A   Clear
12:00 PM 77 °F - 52 °F 31% 30.05 in 22 mi South 11.2 mph - -   Clear
12:20 PM 78.8 °F - 53.6 °F 42% 30.09 in - SE 8.1 mph - N/A   Clear
12:50 PM 78.8 °F - 53.6 °F 42% 30.09 in - SE 9.2 mph - N/A   Clear
1:00 PM 79 °F - 53 °F 30% 30.04 in 22 mi SE 8.9 mph - -  
1:20 PM 80.6 °F 80.3 °F 53.6 °F 39% 30.09 in - ESE 9.2 mph - N/A   Clear
1:50 PM 80.6 °F - 51.8 °F 37% 30.09 in - SSE 11.5 mph - N/A   Clear
2:00 PM 82 °F - 53 °F 27% 30.03 in 22 mi SSE 11.2 mph - -  
2:20 PM 82.4 °F 81.4 °F 53.6 °F 37% 30.06 in - South 9.2 mph - N/A   Clear
2:50 PM 84.2 °F 82.8 °F 53.6 °F 35% 30.06 in - South 10.4 mph - N/A   Clear
3:00 PM 83 °F - 54 °F 26% 30.01 in 22 mi South 8.9 mph - -   Clear
3:20 PM 84.2 °F 82.8 °F 53.6 °F 35% 30.06 in - SSE 10.4 mph - N/A   Clear
3:50 PM 84.2 °F 83.0 °F 55.4 °F 37% 30.06 in - Variable 6.9 mph - N/A   Clear
4:00 PM 83 °F - 54 °F 27% 30.01 in 22 mi 6.7 mph - -   Scattered Clouds
4:20 PM 84.2 °F - 51.8 °F 33% 30.06 in - South 9.2 mph - N/A   Clear
4:50 PM 84.2 °F 82.8 °F 53.6 °F 35% 30.06 in - South 10.4 mph - N/A   Clear
5:20 PM 84.2 °F 82.8 °F 53.6 °F 35% 30.06 in - South 6.9 mph - N/A   Clear
5:50 PM 84.2 °F 82.8 °F 53.6 °F 35% 30.06 in - SSW 5.8 mph - N/A   Clear
6:00 PM 84 °F - 53 °F 25% 30.00 in 22 mi South 6.7 mph - -   Scattered Clouds
6:20 PM 84.2 °F 83.0 °F 55.4 °F 37% 30.06 in - SSE 5.8 mph - N/A   Clear
6:50 PM 84.2 °F 83.0 °F 55.4 °F 37% 30.06 in - South 5.8 mph - N/A   Clear
7:00 PM 83 °F - 55 °F 28% 29.99 in 22 mi SSW 6.7 mph - -   Scattered Clouds
7:20 PM 84.2 °F 83.0 °F 55.4 °F 37% 30.06 in - SSE 4.6 mph - N/A   Clear
7:50 PM 82.4 °F 82.0 °F 57.2 °F 42% 30.06 in - SSE 5.8 mph - N/A   Clear
8:20 PM 82.4 °F 81.7 °F 55.4 °F 39% 30.06 in - SSE 4.6 mph - N/A   Clear
8:50 PM 80.6 °F 80.8 °F 57.2 °F 45% 30.06 in - SSE 3.5 mph - N/A   Clear
9:00 PM 80 °F - 57 °F 35% 30.01 in 22 mi SSE 4.5 mph - -   Scattered Clouds
9:20 PM 78.8 °F - 57.2 °F 47% 30.06 in - SSE 1.2 mph - N/A   Clear
9:50 PM 77.0 °F - 57.2 °F 50% 30.09 in - SSE 1.2 mph - N/A   Clear
10:00 PM 78 °F - 57 °F 39% 30.04 in - SSE 2.2 mph - -  
10:20 PM 77.0 °F - 57.2 °F 50% 30.09 in - Calm Calm - N/A   Clear
10:50 PM 77.0 °F - 57.2 °F 50% 30.09 in - SE 3.5 mph - N/A   Clear
11:20 PM 75.2 °F - 57.2 °F 53% 30.09 in 6.2 mi ESE 3.5 mph - N/A   Unknown
11:50 PM 73.4 °F - 57.2 °F 57% 30.09 in 6.2 mi Calm Calm - N/A   Unknown